AC5JC-1 Weather Reports


Display with metric or nautical units.
time (UTC)temp
F
wind
direction
speed
MPH
gust
MPH
rain 1hr
in
rain 24hr
in
rain mn
in
humidity
%
barometer
mb
20260505140533 73 137 2.0 3.0 0.00 0.00 0.00 85 1004.9
20260505130108 70 134 1.0 2.0 0.00 0.00 0.00 89 1004.5
20260505125033 70 110 1.0 3.0 0.00 0.00 0.00 89 1004.6
20260505124534 70 125 1.0 2.0 0.00 0.00 0.00 89 1004.6
20260505124113 70 140 1.0 2.0 0.00 0.00 0.00 89 1004.7
20260505123532 69 141 1.0 2.0 0.00 0.00 0.00 89 1004.4
20260505123115 69 141 2.0 3.0 0.00 0.00 0.00 90 1004.3
20260505122555 69 140 1.0 2.0 0.00 0.00 0.00 90 1004.3
20260505122054 69 125 1.0 2.0 0.00 0.00 0.00 90 1004.2
20260505121534 69 116 1.0 3.0 0.00 0.00 0.00 90 1004.1
20260505121034 69 143 1.0 2.0 0.00 0.00 0.00 90 1004.0
20260505120534 69 134 1.0 2.0 0.00 0.00 0.00 90 1004.0
20260505120041 69 133 1.0 2.0 0.00 0.00 0.00 90 1003.9
20260505115603 69 138 1.0 2.0 0.00 0.00 0.00 90 1004.1
20260505115034 69 135 1.0 2.0 0.00 0.00 0.00 90 1004.1
20260505114534 69 149 1.0 3.0 0.00 0.00 0.00 90 1004.2
20260505114054 69 140 1.0 2.0 0.00 0.00 0.00 90 1004.0
20260505113534 69 145 1.0 2.0 0.00 0.00 0.00 90 1004.0
20260505113033 69 117 2.0 2.0 0.00 0.00 0.00 90 1003.9
20260505112533 69 142 2.0 2.0 0.00 0.00 0.00 91 1003.8
20260505112033 69 146 1.0 2.0 0.00 0.00 0.00 91 1003.8
20260505111534 69 143 1.0 2.0 0.00 0.00 0.00 91 1003.8
20260505111053 69 129 1.0 2.0 0.00 0.00 0.00 91 1003.8
20260505110533 68 147 1.0 3.0 0.00 0.00 0.00 91 1003.8
20260505102108 69 134 1.0 2.0 0.00 0.00 0.00 91 1003.8
20260505101554 69 138 1.0 2.0 0.00 0.00 0.00 91 1003.8
20260505101028 69 129 2.0 3.0 0.00 0.00 0.00 90 1004.0
20260505100611 69 140 1.0 2.0 0.00 0.00 0.00 90 1003.9
20260505100054 69 143 1.0 3.0 0.00 0.00 0.00 90 1003.8
20260505095534 69 148 2.0 3.0 0.00 0.00 0.00 90 1003.7
20260505095028 69 155 1.0 2.0 0.00 0.00 0.00 90 1003.8
20260505094631 69 159 2.0 3.0 0.00 0.00 0.00 90 1003.8
20260505094051 69 152 1.0 2.0 0.00 0.00 0.00 90 1004.1
20260505093552 69 146 2.0 3.0 0.00 0.00 0.00 89 1003.7
20260505093116 69 148 2.0 2.0 0.00 0.00 0.00 89 1003.8
20260505092533 69 146 1.0 2.0 0.00 0.00 0.00 89 1003.8
20260505092034 70 140 1.0 2.0 0.00 0.00 0.00 89 1003.9
20260505091554 70 141 2.0 2.0 0.00 0.00 0.00 88 1003.8
20260505091033 70 156 2.0 2.0 0.00 0.00 0.00 88 1003.8
20260505090534 70 149 2.0 3.0 0.00 0.00 0.00 88 1004.1
20260505090034 70 146 2.0 3.0 0.00 0.00 0.00 88 1004.2
20260505085533 70 157 2.0 2.0 0.00 0.00 0.00 88 1004.2
20260505085034 70 128 1.0 3.0 0.00 0.00 0.00 87 1004.3
20260505084534 70 135 1.0 2.0 0.00 0.00 0.00 87 1004.3
20260505084033 70 151 2.0 3.0 0.00 0.00 0.00 87 1004.2
20260505083534 70 150 2.0 2.0 0.00 0.00 0.00 87 1004.4
20260505083034 70 124 1.0 2.0 0.00 0.00 0.00 86 1004.3
20260505082533 71 141 2.0 3.0 0.00 0.00 0.00 86 1004.3
20260505082208 71 137 2.0 3.0 0.00 0.00 0.00 85 1004.5
20260505081548 71 137 1.0 2.0 0.00 0.00 0.00 85 1004.4
20260505081033 71 147 2.0 3.0 0.00 0.00 0.00 85 1004.3
20260505080533 71 136 2.0 3.0 0.00 0.00 0.00 84 1004.2
20260505080033 71 137 1.0 2.0 0.00 0.00 0.00 84 1004.3
20260505075533 71 151 2.0 2.0 0.00 0.00 0.00 84 1004.3
20260505075033 71 141 1.0 3.0 0.00 0.00 0.00 84 1004.3
20260505074554 71 159 2.0 3.0 0.00 0.00 0.00 84 1004.4
20260505074033 71 145 1.0 3.0 0.00 0.00 0.00 83 1004.4
20260505073553 71 120 2.0 2.0 0.00 0.00 0.00 83 1004.5
20260505073054 71 143 1.0 2.0 0.00 0.00 0.00 83 1004.6
20260505072534 71 159 2.0 2.0 0.00 0.00 0.00 83 1004.6
20260505072020 71 141 2.0 3.0 0.00 0.00 0.00 82 1004.8
20260505071625 72 145 1.0 2.0 0.00 0.00 0.00 82 1004.8
20260505071114 72 155 2.0 3.0 0.00 0.00 0.00 82 1004.9
20260505070533 72 166 2.0 3.0 0.00 0.00 0.00 81 1004.9
20260505070033 72 162 2.0 3.0 0.00 0.00 0.00 81 1005.0
20260505065533 72 143 2.0 5.0 0.00 0.00 0.00 81 1005.1
20260505065054 72 150 2.0 3.0 0.00 0.00 0.00 81 1005.2
20260505064533 72 166 2.0 3.0 0.00 0.00 0.00 81 1005.3
20260505064034 72 170 2.0 3.0 0.00 0.00 0.00 81 1005.3
20260505063553 72 154 2.0 3.0 0.00 0.00 0.00 80 1005.3
20260505063034 73 168 2.0 3.0 0.00 0.00 0.00 80 1005.3
20260505062533 73 153 2.0 3.0 0.00 0.00 0.00 80 1005.4
20260505062020 73 155 2.0 3.0 0.00 0.00 0.00 80 1005.5
20260505061604 73 163 2.0 3.0 0.00 0.00 0.00 80 1005.4
20260505061104 73 163 2.0 3.0 0.00 0.00 0.00 79 1005.5
20260505060615 73 157 2.0 5.0 0.00 0.00 0.00 79 1005.5
20260505060035 73 179 2.0 3.0 0.00 0.00 0.00 79 1005.4
20260505055534 73 180 2.0 3.0 0.00 0.00 0.00 79 1005.6
20260505055049 73 173 2.0 5.0 0.00 0.00 0.00 79 1005.6
20260505054611 73 166 2.0 2.0 0.00 0.00 0.00 79 1005.6
20260505054052 73 169 2.0 2.0 0.00 0.00 0.00 80 1005.5
20260505053535 73 159 2.0 3.0 0.00 0.00 0.00 79 1005.5
20260505053035 73 168 2.0 5.0 0.00 0.00 0.00 79 1005.5
20260505052555 73 175 2.0 5.0 0.00 0.00 0.00 79 1005.3
20260505052034 74 167 2.0 5.0 0.00 0.00 0.00 79 1005.4
20260505051533 74 169 3.0 6.0 0.00 0.00 0.00 78 1005.4
20260505051116 74 171 3.0 3.0 0.00 0.00 0.00 78 1005.5
20260505050556 74 163 2.0 3.0 0.00 0.00 0.00 78 1005.4
20260505041620 74 136 2.0 2.0 0.00 0.00 0.00 78 1005.8
20260505041100 74 160 2.0 5.0 0.00 0.00 0.00 78 1005.8
20260505040536 74 158 2.0 6.0 0.00 0.00 0.00 78 1005.8
20260505040055 74 145 2.0 2.0 0.00 0.00 0.00 78 1006.0
20260505035535 74 150 2.0 3.0 0.00 0.00 0.00 78 1005.9
20260505035035 74 136 2.0 3.0 0.00 0.00 0.00 78 1005.9
20260505034525 74 149 1.0 2.0 0.00 0.00 0.00 77 1005.8
20260505034108 74 150 2.0 3.0 0.00 0.00 0.00 77 1005.8
20260505033548 74 158 2.0 5.0 0.00 0.00 0.00 76 1005.8
20260505033035 74 146 2.0 5.0 0.00 0.00 0.00 76 1005.8
20260505032535 74 131 1.0 2.0 0.00 0.00 0.00 77 1005.7
20260505032035 75 111 2.0 5.0 0.00 0.00 0.00 76 1005.7
20260505031533 74 156 2.0 3.0 0.00 0.00 0.00 76 1005.7
20260505031116 74 146 2.0 3.0 0.00 0.00 0.00 77 1005.6
20260505030540 74 141 2.0 5.0 0.00 0.00 0.00 76 1005.6
20260505030035 74 149 2.0 5.0 0.00 0.00 0.00 76 1005.6
20260505025620 74 183 2.0 3.0 0.00 0.00 0.00 76 1005.7
20260505025100 74 149 2.0 3.0 0.00 0.00 0.00 76 1005.7
20260505024601 74 159 2.0 6.0 0.00 0.00 0.00 76 1005.8
20260505024035 74 142 2.0 3.0 0.00 0.00 0.00 76 1005.8
20260505023533 74 158 2.0 5.0 0.00 0.00 0.00 76 1005.7
20260505023117 74 141 1.0 3.0 0.00 0.00 0.00 76 1005.8
20260505022540 74 139 1.0 3.0 0.00 0.00 0.00 76 1005.6
20260505022020 75 146 1.0 3.0 0.00 0.00 0.00 76 1005.7
20260505021604 75 168 2.0 2.0 0.00 0.00 0.00 75 1005.8
20260505021044 75 170 2.0 3.0 0.00 0.00 0.00 75 1005.7
20260505020524 75 128 1.0 2.0 0.00 0.00 0.00 75 1005.6
20260505020108 75 139 2.0 3.0 0.00 0.00 0.00 75 1005.7
20260505015548 75 152 2.0 3.0 0.00 0.00 0.00 75 1005.6
20260505015028 75 147 1.0 2.0 0.00 0.00 0.00 74 1005.6
20260505014612 75 148 2.0 3.0 0.00 0.00 0.00 75 1005.8
20260505014052 75 162 2.0 3.0 0.00 0.00 0.00 75 1005.7
20260505013533 75 149 2.0 5.0 0.00 0.00 0.00 75 1005.8
20260505013136 75 152 2.0 3.0 0.00 0.00 0.00 75 1005.7
20260505012556 75 153 2.0 5.0 0.00 0.00 0.00 74 1005.7
20260505012035 75 150 2.0 2.0 0.00 0.00 0.00 74 1005.8
20260505011620 75 159 2.0 3.0 0.00 0.00 0.00 74 1005.8
20260505011100 75 149 2.0 3.0 0.00 0.00 0.00 74 1005.7
20260505010540 75 137 1.0 3.0 0.00 0.00 0.00 73 1005.6
20260505010042 76 142 2.0 2.0 0.00 0.00 0.00 72 1005.7
20260505005604 76 138 1.0 2.0 0.00 0.00 0.00 72 1005.6
20260505005044 76 142 1.0 2.0 0.00 0.00 0.00 72 1005.7
20260505004525 76 161 2.0 3.0 0.00 0.00 0.00 71 1005.8
20260505004128 76 145 1.0 2.0 0.00 0.00 0.00 72 1005.8
20260505003548 77 161 2.0 3.0 0.00 0.00 0.00 71 1005.9
20260505003029 77 149 2.0 3.0 0.00 0.00 0.00 71 1005.8
20260505002612 77 151 1.0 2.0 0.00 0.00 0.00 71 1005.7
20260505002112 77 144 2.0 3.0 0.00 0.00 0.00 70 1005.8
20260505001534 77 165 2.0 3.0 0.00 0.00 0.00 70 1005.9
20260505001116 77 138 2.0 3.0 0.00 0.00 0.00 70 1005.7
20260505000556 78 156 2.0 3.0 0.00 0.00 0.00 70 1005.7
20260505000035 78 160 2.0 5.0 0.00 0.00 0.00 69 1005.8
20260504235620 78 194 2.0 3.0 0.00 0.00 0.00 69 1005.9
20260504235125 79 150 2.0 3.0 0.00 0.00 0.00 68 1006.1
20260504234526 79 177 3.0 6.0 0.00 0.00 0.00 67 1006.2
20260504234112 78 159 2.0 2.0 0.00 0.00 0.00 68 1006.2
20260504233533 79 139 2.0 3.0 0.00 0.00 0.00 68 1006.1
20260504233116 79 184 2.0 3.0 0.00 0.00 0.00 68 1006.1
20260504232556 79 130 2.0 3.0 0.00 0.00 0.00 67 1006.1
20260504232035 79 197 2.0 5.0 0.00 0.00 0.00 66 1006.2
20260504231549 79 178 2.0 3.0 0.00 0.00 0.00 67 1006.2
20260504231029 79 176 3.0 6.0 0.00 0.00 0.00 66 1006.2
20260504230612 79 183 3.0 6.0 0.00 0.00 0.00 66 1006.2
20260504230035 80 173 2.0 3.0 0.00 0.00 0.00 66 1006.3
20260504225640 80 193 3.0 6.0 0.00 0.00 0.00 65 1006.2
20260504225044 80 165 3.0 6.0 0.00 0.00 0.00 65 1006.4
20260504224612 80 152 3.0 3.0 0.00 0.00 0.00 64 1006.5
20260504224052 81 180 3.0 5.0 0.00 0.00 0.00 63 1006.6
20260504223533 81 173 3.0 6.0 0.00 0.00 0.00 63 1006.4
20260504223101 81 203 3.0 5.0 0.00 0.00 0.00 63 1006.5
20260504222535 82 190 3.0 3.0 0.00 0.00 0.00 62 1006.5
20260504222108 82 173 2.0 3.0 0.00 0.00 0.00 63 1006.5
20260504221549 82 146 2.0 6.0 0.00 0.00 0.00 62 1006.5
20260504221029 82 175 3.0 8.0 0.00 0.00 0.00 63 1006.5
20260504220612 82 171 3.0 6.0 0.00 0.00 0.00 64 1006.5
20260504220052 82 151 2.0 3.0 0.00 0.00 0.00 63 1006.7
20260504215533 82 183 3.0 5.0 0.00 0.00 0.00 63 1006.9
20260504215117 81 164 2.0 6.0 0.00 0.00 0.00 63 1006.8
20260504214556 82 182 3.0 6.0 0.00 0.00 0.00 63 1006.8
20260504214035 82 193 2.0 6.0 0.00 0.00 0.00 63 1006.8
20260504213620 81 143 2.0 5.0 0.00 0.00 0.00 63 1007.0
20260504213045 81 194 2.0 7.0 0.00 0.00 0.00 63 1007.0
20260504212629 81 206 2.0 6.0 0.00 0.00 0.00 62 1007.1
20260504212113 82 159 2.0 3.0 0.00 0.00 0.00 62 1007.2
20260504211534 82 159 3.0 6.0 0.00 0.00 0.00 61 1007.5
20260504211116 83 153 3.0 5.0 0.00 0.00 0.00 61 1007.5
20260504210556 83 157 2.0 6.0 0.00 0.00 0.00 61 1007.4
20260504210036 83 135 3.0 6.0 0.00 0.00 0.00 60 1007.5
20260504205604 82 165 3.0 5.0 0.00 0.00 0.00 61 1007.6
20260504205029 82 151 3.0 5.0 0.00 0.00 0.00 61 1007.7
20260504204613 82 172 3.0 6.0 0.00 0.00 0.00 61 1007.9
20260504204053 82 180 2.0 7.0 0.00 0.00 0.00 61 1007.9
20260504203533 82 174 3.0 6.0 0.00 0.00 0.00 61 1007.9
20260504203120 82 171 3.0 7.0 0.00 0.00 0.00 61 1008.0
20260504202525 82 181 3.0 5.0 0.00 0.00 0.00 61 1008.1
20260504202108 82 127 2.0 3.0 0.00 0.00 0.00 62 1008.4
20260504201621 82 179 3.0 6.0 0.00 0.00 0.00 62 1008.4
20260504201100 82 156 2.0 5.0 0.00 0.00 0.00 63 1008.5
20260504200540 81 181 3.0 6.0 0.00 0.00 0.00 63 1008.7
20260504200021 81 185 3.0 7.0 0.00 0.00 0.00 63 1008.8
20260504195605 81 164 3.0 5.0 0.00 0.00 0.00 63 1008.9
20260504195044 81 182 2.0 5.0 0.00 0.00 0.00 64 1009.0
20260504194556 81 176 2.0 5.0 0.00 0.00 0.00 63 1009.3
20260504194022 81 152 2.0 5.0 0.00 0.00 0.00 63 1009.2
20260504193533 81 128 2.0 5.0 0.00 0.00 0.00 63 1009.4
20260504193101 80 157 2.0 5.0 0.00 0.00 0.00 63 1009.5
20260504192541 80 170 2.0 5.0 0.00 0.00 0.00 62 1009.5
20260504192124 81 196 3.0 5.0 0.00 0.00 0.00 63 1009.6
20260504191629 81 154 2.0 5.0 0.00 0.00 0.00 63 1009.5
20260504191029 80 151 3.0 6.0 0.00 0.00 0.00 63 1009.6
20260504190633 80 180 2.0 3.0 0.00 0.00 0.00 63 1009.7
20260504190052 79 183 2.0 5.0 0.00 0.00 0.00 64 1009.8
20260504185621 79 149 3.0 8.0 0.00 0.00 0.00 63 1009.8
20260504185044 80 167 3.0 5.0 0.00 0.00 0.00 63 1010.0
20260504184633 80 153 2.0 5.0 0.00 0.00 0.00 64 1010.1
20260504184113 79 170 2.0 5.0 0.00 0.00 0.00 62 1010.1
20260504183534 79 187 2.0 3.0 0.00 0.00 0.00 64 1010.1
20260504183046 79 147 3.0 8.0 0.00 0.00 0.00 64 1010.3
20260504182525 78 177 3.0 6.0 0.00 0.00 0.00 64 1010.3
20260504182129 78 147 2.0 3.0 0.00 0.00 0.00 65 1010.3
20260504181549 78 169 2.0 5.0 0.00 0.00 0.00 64 1010.5
20260504181029 78 171 2.0 5.0 0.00 0.00 0.00 65 1010.6
20260504180613 77 167 3.0 6.0 0.00 0.00 0.00 65 1010.6
20260504180053 78 165 2.0 6.0 0.00 0.00 0.00 64 1010.8
20260504175534 77 163 3.0 5.0 0.00 0.00 0.00 65 1010.9
20260504175116 77 136 2.0 6.0 0.00 0.00 0.00 66 1011.0
20260504174557 77 175 3.0 7.0 0.00 0.00 0.00 66 1010.9
20260504174035 77 137 2.0 3.0 0.00 0.00 0.00 65 1011.2
20260504173621 77 177 3.0 5.0 0.00 0.00 0.00 65 1011.3
20260504173035 77 180 3.0 5.0 0.00 0.00 0.00 66 1011.4
20260504172633 77 177 3.0 5.0 0.00 0.00 0.00 65 1011.5
20260504172113 76 163 2.0 6.0 0.00 0.00 0.00 66 1011.5
20260504171534 77 166 2.0 5.0 0.00 0.00 0.00 65 1011.4
20260504171137 76 177 2.0 3.0 0.00 0.00 0.00 67 1011.6
20260504170557 76 140 2.0 5.0 0.00 0.00 0.00 66 1011.7
20260504151055 70 166 3.0 6.0 0.00 0.00 0.00 71 1012.6
20260504150535 70 157 2.0 3.0 0.00 0.00 0.00 71 1012.6